This demonstration page uses our WeatherBlox Daily Observations layout. Learn more.

Left ArrowRight Arrow

34.74481, -87.66753

Hourly Observations for August 15, 2022

Temp ( °F °C ) Dew Point ( °F °C ) Humidity (%) Winds ( mph kmh ) Pressure ( in mb ) Visibility ( mi km ) Precip ( " mm )
12:53 am 00:53 Clear 72 22.2 69 20.6 91 91 Calm 29.91 1013 10 16 0.00 0.00
1:53 am 01:53 Clear 73 22.8 69 20.6 87 87 Calm 29.91 1013 10 16 0.00 0.00
2:53 am 02:53 Clear 72 22.2 68 20 87 87 Calm 29.89 1012 10 16 0.00 0.00
3:53 am 03:53 Clear 71 21.7 68 20 90 90 Calm 29.88 1012 9 14 0.00 0.00
4:53 am 04:53 Clear 71 21.7 68 20 90 90 Calm 29.89 1012 9 14 0.00 0.00
5:53 am 05:53 Partly Cloudy 71 21.7 68 20 90 90 Calm 29.90 1013 9 14 0.00 0.00
6:53 am 06:53 Mostly Cloudy 72 22.2 70 21.1 93 93 Calm 29.90 1013 8 13 0.00 0.00
7:53 am 07:53 Sunny 77 25 70 21.1 79 79 SW 3 6 29.90 1013 10 16 0.00 0.00
8:53 am 08:53 Mostly Sunny 85 29.4 71 21.7 63 63 WSW 9 15 29.91 1013 10 16 0.00 0.00
9:53 am 09:53 Mostly Sunny 89 31.7 72 22.2 57 57 W 14 22 29.90 1013 10 16 0.00 0.00
10:53 am 10:53 Partly Cloudy 91 32.8 72 22.2 54 54 WNW 9 15 29.90 1013 10 16 0.00 0.00
11:53 am 11:53 Mostly Cloudy 91 32.8 73 22.8 56 56 W 12 19 29.89 1012 10 16 0.00 0.00
12:53 pm 12:53 Partly Cloudy 94 34.4 73 22.8 51 51 NW 16 26 29.88 1012 10 16 0.00 0.00
1:53 pm 13:53 Partly Cloudy 95 35 74 23.3 51 51 NW 9 15 29.87 1012 10 16 0.00 0.00
2:53 pm 14:53 Mostly Sunny 95 35 73 22.8 49 49 NW 13 20 29.86 1011 10 16 0.00 0.00
3:53 pm 15:53 Sunny 93 33.9 70 21.1 47 47 NW 14 22 29.85 1011 10 16 0.00 0.00
4:53 pm 16:53 Sunny 93 33.9 69 20.6 46 46 NNW 12 19 29.84 1011 10 16 0.00 0.00
5:53 pm 17:53 Sunny 91 32.8 67 19.4 45 45 NNW 10 17 29.85 1011 10 16 0.00 0.00
6:53 pm 18:53 Sunny 88 31.1 66 18.9 48 48 NNW 6 9 29.86 1011 10 16 0.00 0.00
7:53 pm 19:53 Clear 83 28.3 67 19.4 59 59 NNW 6 9 29.88 1012 10 16 0.00 0.00
8:53 pm 20:53 Clear 80 26.7 68 20 67 67 N 5 7 29.90 1013 10 16 0.00 0.00
9:53 pm 21:53 Clear 79 26.1 67 19.4 67 67 N 3 6 29.93 1013 10 16 0.00 0.00
10:53 pm 22:53 Clear 78 25.6 66 18.9 67 67 N 5 7 29.93 1013 10 16 0.00 0.00
11:53 pm 23:53 Clear 76 24.4 67 19.4 74 74 N 3 6 29.92 1013 10 16 0.00 0.00

Powered by AerisWeather